Powrót do katalogu

FENGYUN 1C DEB

AktywnySSO
NORAD 31155·DEBRIS·🇨🇳 China

Wystrzelony May 10, 1999 z Taiyuan Satellite Launch Center

Loading…

Następne Przeloty (najbliższe 24 godziny)

TLE

ŚwieżeSource: Space-Track

Epoka: Sep 11, 2026, 16:50 UTC

1 31155U 99025BHH 26254.70191701  .00001479  00000-0  84381-3 0  9993
2 31155  99.0256 329.1949 0086666 318.1009  41.3549 14.09413210994316

Śledź FENGYUN 1C DEB w czasie rzeczywistym z AllMySat

Download on the App Store